Regional Weather Roundup
Issued by NWS

Home | Current Version | Previous Version | Text Only | Print | Product List | Glossary Off
Versions: 1 2 3 4 5 6 7 8 9 10 11 12 13 14 15 16 17 18 19 20 21 22 23 24 25 26 27 28 29 30 31 32 33 34 35 36 37 38 39 40 41 42 43 44 45 46 47 48 49 50

000
ASUS44 KMEG 200610
RWRTN
TENNESSEE HOURLY STATE WEATHER ROUNDUP
NATIONAL WEATHER SERVICE MEMPHIS TN
100 AM CDT WED SEP 20 2017

TNZ002-004-019-021-049-052-054-088>092-200700-
WEST TENNESSEE

CITY           SKY/WX    TMP DP  RH WIND       PRES   REMARKS
MEMPHIS INTL   PTCLDY    79  72  79 S12       29.93S
NWS MEMPHIS      N/A     78 N/A N/A MISG        N/A
JACKSON        CLEAR     73  71  93 S3        29.95R
DYERSBURG      CLEAR     75  70  84 S5        29.93S
HUNTINGDON     PTCLDY    72  70  94 CALM      29.94R
$$

TNZ008-025-027-028-033-062-065-066-200700-
NORTH MIDDLE TENNESSEE

CITY           SKY/WX    TMP DP  RH WIND       PRES   REMARKS
NASHVILLE      CLEAR     68  66  93 SE3       29.98S
PORTLAND       MOCLDY    68  66  94 S5        29.98R
CLARKSVILLE    PTCLDY    68  66  93 SE5       29.96R
SMYRNA           N/A    N/A N/A N/A MISG        N/A
CROSSVILLE     CLEAR     60  60 100 CALM      30.06S
$$

TNZ061-075-076-078-094-096-097-200700-
SOUTH MIDDLE TENNESSEE

CITY           SKY/WX    TMP DP  RH WIND       PRES   REMARKS
TULLAHOMA      CLEAR     64  63  94 CALM      30.03R
WINCHESTER     CLEAR     64  64 100 CALM        N/A
MCMINNVILLE    MOCLDY    64  64 100 CALM      30.01S VSB 3/4
COLUMBIA       CLEAR     68  68 100 CALM      29.97S
SHELBYVILLE    CLEAR     64  64 100 SE3       30.00R FOG
$$

TNZ017-018-042-046-047-200700-
NORTHEAST TENNESSEE

CITY           SKY/WX    TMP DP  RH WIND       PRES   REMARKS
TRI CITIES     CLOUDY    66  63  90 CALM      30.04R
ELIZABETHTON   CLOUDY    63  61  94 CALM      30.06R
$$

TNZ012-013-036-069-073-074-200700-
CENTRAL EAST TENNESSEE

CITY           SKY/WX    TMP DP  RH WIND       PRES   REMARKS
KNOXVILLE      PTCLDY    65  62  90 SW3       30.01S
OAK RIDGE      CLOUDY    65  63  93 CALM      30.03S
GATLINBURG     PTCLDY    63  61  94 CALM      30.02S
MORRISTOWN     CLEAR     64  63  94 CALM      30.02S
JACKSBORO      FOG       64  64 100 CALM      30.05S VSB 0
$$

TNZ083-085-099-200700-
SOUTHEAST TENNESSEE

CITY           SKY/WX    TMP DP  RH WIND       PRES   REMARKS
CHATTANOOGA    CLEAR     68  65  90 CALM      30.02R
DAYTON         FOG       66  66 100 CALM      30.02R VSB 0
$$

SKY/WX REPORTED AS FAIR MEANS FEW OR NO CLOUDS BELOW
12 THOUSAND FEET.





USA.gov is the U.S. government's official web portal to all federal, state and local government web resources and services.